星链-4363 (STARLINK-4363 )

导读

STARLINK-4363是美国太空探索技术公司Starlink卫星互联网项目的成员,于2022年7月22日发射升空,属于星链星座扩容批次卫星。它主要依托低轨轨道运行,为全球提供高速卫星互联网接入服务,能填补地面网络覆盖盲区,服务偏远地区通信、海上及航空移动网络需求,是美国构建低轨巨型星座的组成部分。

基本信息
目录编号:
53220
目录名称:
STARLINK-4363
国际标识:
2022-084AH
轨道中心:
EARTH
卫星名称:
星链-4363
卫星全名:
星链-4363 (STARLINK-4363 )
卫星状态:
在轨 (已飞行1505 天)
发射日期:
2022-07-22 UTC
国别 :
美国 (US)
星等 :
--
轨道信息
数据来源 国际轨道数据
星历时间: 2026-09-04T04:00:02+0800
8小时前
查看轨道信息
半长轴: 6850.066km
偏心率: 0.0001047
轨道倾角: 97.281°
近地点辐角 73.041°
升交点赤经 301.868°
平近点角 93.052°
近地点: 471.211km
远地点: 472.647km
周期: 94.038分钟
每日圈数: 15.313014
详细信息
固有亮度:
5
最大亮度:
2.5
卫星平台:
Starlink v1.5
覆盖范围:
全球
运营商:
太空探索技术公司
运营商所在国:
美国
制造商(研发单位):
太空探索技术公司
制造商所在国:
美国
使用方式:
暂无
卫星简介
星链(Starlink)计划是由太空探索技术公司(SpaceX)提出的一个巨型低轨卫星互联网星座项目,计划在2019年至2024年间在太空搭建由约1.2万颗卫星组成的“星链”网络,其中1584颗将部署在地球上空550千米处的近地轨道,并从2020年开始工作。该卫星仍在工作。
2D轨道图
3D轨道图
轨道高度分析图
轨道倾角分析图
轨道综合分析图
查看轨道综合分析图
交会数据列表
事件ID 空间交会对象 最接近时刻(TCA) 交会距离 交会风险概率(CRP) 交会风险指数(CRI) 操作
CDM_260902-154805-322005-961921
2026-09-02T
15:48:51+0000
0.708 km
远距离
8.126274E-5 中风险 0.73
CDM_260903-104405-322005-863921
2026-09-03T
10:44:49+0000
1.131 km
极远距离
1.716199E-5 中风险 0.6
CDM_260904-192805-322006-242821
2026-09-04T
19:28:10+0000
1.097 km
极远距离
1.608397E-5 中风险 0.59
CDM_260904-194705-322006-395721
2026-09-04T
19:47:41+0000
1.199 km
极远距离
1.035877E-5 中风险 0.55
CDM_260903-032905-322006-696621
2026-09-03T
03:29:57+0000
1.327 km
极远距离
9.849954E-6 低风险 0.55
CDM_260902-221505-322005-764821
2026-09-02T
22:15:16+0000
1.405 km
极远距离
7.745823E-6 低风险 0.53
CDM_260903-222105-322005-885621
2026-09-03T
22:21:40+0000
1.459 km
极远距离
4.544178E-6 低风险 0.48
CDM_260904-133105-322006-680621
2026-09-04T
13:31:54+0000
1.663 km
极远距离
4.383836E-6 低风险 0.48
CDM_260904-070405-322005-822521
2026-09-04T
07:04:31+0000
1.777 km
极远距离
3.877381E-6 低风险 0.47
CDM_260902-155505-322005-799321
2026-09-02T
15:55:04+0000
1.982 km
极远距离
2.832485E-6 低风险 0.44